NOAA 16 DEB, 41074

Orbit data source: Space-Track

NOAA 16 DEB, 41074 is space debris in SSO originally from a launch on Thu, 21 Sep 2000 UTC launched from the Air Force Western Test Range (AFWTR). Debris objects in space refer to the collection of defunct objects orbiting the Earth. Examples of debris include non-operational satellites, rocket bodies, and fragments generated from explosions, collisions, or faulty payload assembly.

Loading next visibility...
Identifier
41074, 2000-055AH
Orbit
SSO
Country
Flag of USUS
Related business
Manufacturer
Unknown
Mission
Spacecraft
Bus & Motor
Unknown
Mass
Unknown
Launch date (UTC)
2000-09-21 (25 years ago)
Launch vehicle
Unknown
Launch site
Air Force Western Test Range (AFWTR)
Object type
Payload
Rocket body
Debris
Shape & HBR
Unknown shape, 0.1 m
Radar Cross Section
Small (<0.1 m²)

Expand to show TLE details & history
Last TLE update: 12 hours ago

TLE from 12 hours ago
0 NOAA 16 DEB
1 41074U 00055AH  25298.42028220  .00004762  00000-0  12959-2 0  9999
2 41074  98.8796 115.3071 0084999 193.5172 166.3741 14.45831157519619
Epoch: 2025-10-25T10:05Z
TLE epoch observation values (Epoch: 2025-10-25T10:05:12.382Z)
Latitude
-0.00003°
Longitude
-70.04557°
Altitude
801.076 km
Speed
7.422 km/s
True Right ascension
07h 41m 13s
True Declination
0° 00' 00"
Sunlit
Object was in daylight at epoch
Visualization orbit readout
Latitude
Unknown
Longitude
Unknown
Altitude
Unknown
Speed
Unknown
Apparent Right ascension
Unknown
Apparent Declination
Unknown
Sunlit
N/A
Visualization observer readout
Local Sidereal Time
16:53:12
Azimuth
Unknown
Elevation
Unknown
Doppler factor
Unknown
Orbital elements
Apogee altitude
796.902 km
Perigee altitude
675.956 km
Semi-major axis
7,114.566 km
Eccentricity
0.0085
Inclination
98.8796°
RAAN
115.3071°
Arg. of periapsis
193.5172°
True anomaly
166.60121°
Mean anomaly
166.3741°
Eccentric anomaly
166.48789°
Mean motion
3.61677 °/min
Orbital period
99.54 mins
BSTAR
0.0012959
Loading maneuver chart data...
Computing Atmospheric mass density...

Documentation

Showing up to 5 results
|